• Join FlightAware (Why Join?)
  • Login
  • US Flag GB Flag 
17:22 EDT


 

Airport Tracker/Info


-or-


 

Live Flight TrackerFlight Track Log ✈ SWA1435 ✈ 13-Apr-2013 ✈ KBDL - KMCO

Flight Track Log - Related Links

Times and Time Zones

All times are in EDT time to prevent confusion due to time zone crossing. See the SWA1435 flight status page for this flight to view local times or setup timezone preferences in your user account.

Time Position Orientation Groundspeed Altitude Reporting Facility
EDT Latitude Longitude Course Direction KTS MPH feet Rate Location/Type
06:56 41.9522 -72.6661 76° East 157 181 1,300  Level Boston Center
06:57 41.9583 -72.6328 76° East 182 209 1,900 1,440 Climbing Boston Center
06:57 41.9628 -72.5769 84° East 239 275 3,000 2,040 Climbing Boston Center
06:58 41.9106 -72.5267 144° Southeast 275 316 5,400 3,120 Climbing Boston Center
06:59 41.8272 -72.4958 165° South 269 310 9,300 2,820 Climbing Boston Center
07:00 41.7544 -72.4789 170° South 288 331 11,000 2,100 Climbing Boston Center
07:01 41.6458 -72.4456 167° South 349 402 13,600 2,580 Climbing Boston Center
07:02 41.5500 -72.4178 168° South 382 440 16,300 2,640 Climbing Boston Center
07:03 41.4333 -72.3875 169° South 389 448 18,900 2,280 Climbing Boston Center
07:04 41.3417 -72.3986 185° South 394 453 20,800 1,860 Climbing Boston Center
07:05 41.2478 -72.4981 219° Southwest 359 413 22,800 1,860 Climbing Boston Center
07:06 41.1625 -72.5833 217° Southwest 373 429 24,700 1,860 Climbing Boston Center
07:07 41.0747 -72.6714 217° Southwest 391 450 26,600 2,160 Climbing Boston Center
07:08 40.9869 -72.7564 216° Southwest 397 457 29,000 2,280 Climbing Boston Center
07:09 40.9056 -72.8356 216° Southwest 391 450 31,200 1,680 Climbing Boston Center
07:10 40.8258 -72.9144 217° Southwest 372 428 32,500 1,080 Climbing Boston Center
07:11 40.7611 -72.9772 216° Southwest 372 428 33,400 1,200 Climbing Boston Center
07:12 40.6669 -73.0583 213° Southwest 372 428 34,900 1,260 Climbing Boston Center
07:13 40.5872 -73.1397 218° Southwest 372 428 36,000 540 Climbing Boston Center
07:14 40.5014 -73.2233 217° Southwest 362 417 36,000  Level Boston Center
07:15 40.4175 -73.2986 214° Southwest 362 417 36,000  Level Boston Center
07:16 40.3375 -73.3767 217° Southwest 362 417 36,000  Level Boston Center
07:17 40.2536 -73.4542 215° Southwest 362 417 36,000  Level Boston Center
07:19 40.1339 -73.5728 217° Southwest 366 421 36,000  Level Washington Center
07:20 40.0519 -73.6481 215° Southwest 361 415 36,000  Level Washington Center
07:21 39.9739 -73.7261 217° Southwest 361 415 36,000  Level Washington Center
07:22 39.8917 -73.7986 214° Southwest 361 415 36,000  Level Washington Center
07:23 39.8117 -73.8764 217° Southwest 361 415 36,000  Level Washington Center
07:24 39.7314 -73.9511 216° Southwest 361 415 36,000  Level Washington Center
07:25 39.6511 -74.0256 216° Southwest 361 415 36,000  Level Washington Center
07:26 39.5625 -74.1058 215° Southwest 361 415 36,000  Level Washington Center
07:27 39.4864 -74.1797 217° Southwest 361 415 36,000  Level Washington Center
07:28 39.4058 -74.2539 215° Southwest 361 415 36,000  Level Washington Center
07:29 39.3233 -74.3281 215° Southwest 361 415 36,000  Level Washington Center
07:30 39.2469 -74.3989 216° Southwest 361 415 36,000  Level Washington Center
07:31 39.1664 -74.4725 215° Southwest 354 407 36,000  Level Washington Center
07:32 39.0858 -74.5486 216° Southwest 354 407 36,000  Level Washington Center
07:33 39.0072 -74.6192 215° Southwest 354 407 36,000  Level Washington Center
07:34 38.9264 -74.6925 215° Southwest 354 407 36,000  Level Washington Center
07:35 38.8458 -74.7653 215° Southwest 354 407 36,000  Level Washington Center
07:36 38.7650 -74.8328 213° Southwest 354 407 36,000  Level Washington Center
07:37 38.6819 -74.9108 216° Southwest 354 407 36,000  Level Washington Center
07:38 38.5989 -74.9808 213° Southwest 359 413 36,000  Level Washington Center
07:39 38.5117 -75.0506 212° Southwest 364 419 36,000  Level Washington Center
07:40 38.4286 -75.1225 214° Southwest 369 425 36,000  Level Washington Center
07:41 38.3433 -75.1919 213° Southwest 369 425 36,000  Level Washington Center
07:42 38.2728 -75.2611 218° Southwest 369 425 36,000  Level Washington Center
07:43 38.1875 -75.3275 211° Southwest 369 425 36,000  Level Washington Center
07:44 38.0958 -75.4017 212° Southwest 364 419 36,000  Level Washington Center
07:45 38.0103 -75.4758 214° Southwest 364 419 36,000  Level Washington Center
07:46 37.9269 -75.5417 212° Southwest 369 425 36,000  Level Washington Center
07:47 37.8458 -75.6103 214° Southwest 364 419 36,000  Level Washington Center
07:48 37.7622 -75.6786 213° Southwest 364 419 36,000  Level Washington Center
07:49 37.6808 -75.7439 212° Southwest 364 419 36,000  Level Washington Center
07:50 37.6014 -75.8119 214° Southwest 364 419 36,000  Level Washington Center
07:51 37.5200 -75.8772 212° Southwest 359 413 36,000  Level Washington Center
07:52 37.4364 -75.9422 212° Southwest 359 413 36,000  Level Washington Center
07:53 37.3547 -76.0100 213° Southwest 354 407 36,000  Level Washington Center
07:54 37.2733 -76.0747 212° Southwest 354 407 36,000  Level Washington Center
07:55 37.1894 -76.1419 213° Southwest 354 407 36,000  Level Washington Center
07:56 37.1100 -76.1961 209° Southwest 359 413 36,000  Level Washington Center
07:57 37.0283 -76.2656 214° Southwest 359 413 36,000  Level Washington Center
07:58 36.9444 -76.3325 213° Southwest 359 413 36,000  Level Washington Center
07:59 36.8606 -76.3967 211° Southwest 364 419 36,000  Level Washington Center
08:00 36.7767 -76.4633 212° Southwest 364 419 36,000  Level Washington Center
08:01 36.6886 -76.5400 215° Southwest 364 419 36,000  Level Washington Center
08:02 36.6044 -76.6036 211° Southwest 364 419 36,000  Level Washington Center
08:03 36.5225 -76.6697 213° Southwest 364 419 36,000  Level Washington Center
08:04 36.4406 -76.7331 212° Southwest 364 419 36,000  Level Washington Center
08:05 36.3567 -76.7989 212° Southwest 364 419 36,000  Level Washington Center
08:06 36.2744 -76.8622 212° Southwest 364 419 36,000  Level Washington Center
08:07 36.1925 -76.9253 212° Southwest 359 413 36,000  Level Washington Center
08:08 36.1103 -76.9906 213° Southwest 359 413 36,000  Level Washington Center
08:09 36.0261 -77.0533 211° Southwest 359 413 36,000  Level Washington Center
08:10 35.9461 -77.1186 213° Southwest 359 413 36,000  Level Washington Center
08:11 35.8825 -77.1842 220° Southwest 343 395 36,000  Level Washington Center
08:12 35.8064 -77.2594 219° Southwest 343 395 36,000  Level Washington Center
08:13 35.7322 -77.3344 219° Southwest 348 400 36,000  Level Washington Center
08:14 35.6581 -77.4122 220° Southwest 353 406 36,000  Level Washington Center
08:15 35.5819 -77.4869 219° Southwest 358 412 36,000  Level Washington Center
08:16 35.5036 -77.5617 218° Southwest 358 412 36,000  Level Washington Center
08:17 35.4272 -77.6364 219° Southwest 358 412 36,000  Level Washington Center
08:18 35.3508 -77.7083 218° Southwest 358 412 36,000  Level Washington Center
08:19 35.2742 -77.7878 220° Southwest 358 412 36,000  Level Washington Center
08:20 35.1978 -77.8619 218° Southwest 358 412 36,000  Level Washington Center
08:21 35.1211 -77.9333 217° Southwest 358 412 36,000  Level Washington Center
08:22 35.0447 -78.0097 219° Southwest 358 412 36,000  Level Washington Center
08:23 34.9681 -78.0836 218° Southwest 358 412 36,000  Level Washington Center
08:24 34.8892 -78.1594 218° Southwest 358 412 36,000 300 Level Washington Center
08:25 34.8081 -78.2481 222° Southwest 358 412 36,700 780 Climbing Washington Center
08:26 34.7311 -78.3214 218° Southwest 363 418 37,600 360 Climbing Washington Center
08:28 34.5603 -78.4756 217° Southwest 355 409 38,000 120 Climbing Jacksonville Center
08:29 34.4878 -78.5550 222° Southwest 355 409 38,000  Level Jacksonville Center
08:30 34.4111 -78.6267 218° Southwest 355 409 38,000  Level Jacksonville Center
08:31 34.3344 -78.7033 220° Southwest 360 414 38,000  Level Jacksonville Center
08:32 34.2553 -78.7750 217° Southwest 360 414 38,000  Level Jacksonville Center
08:33 34.1783 -78.8464 218° Southwest 360 414 38,000  Level Jacksonville Center
08:34 34.0994 -78.9228 219° Southwest 360 414 38,000  Level Jacksonville Center
08:35 34.0203 -78.9967 218° Southwest 360 414 38,000  Level Jacksonville Center
08:36 33.9433 -79.0675 217° Southwest 360 414 38,000  Level Jacksonville Center
08:37 33.8661 -79.1408 218° Southwest 360 414 38,000  Level Jacksonville Center
08:38 33.7850 -79.2144 217° Southwest 360 414 38,000  Level Jacksonville Center
08:39 33.7017 -79.2953 219° Southwest 360 414 38,000  Level Jacksonville Center
08:40 33.6344 -79.3553 217° Southwest 360 414 38,000  Level Jacksonville Center
08:41 33.5553 -79.4308 219° Southwest 360 414 38,000  Level Jacksonville Center
08:42 33.4758 -79.5011 216° Southwest 360 414 38,000  Level Jacksonville Center
08:43 33.3983 -79.5736 218° Southwest 360 414 38,000  Level Jacksonville Center
08:44 33.3208 -79.6461 218° Southwest 360 414 38,000  Level Jacksonville Center
08:45 33.2414 -79.7186 217° Southwest 360 414 38,000  Level Jacksonville Center
08:46 33.1617 -79.7908 217° Southwest 360 414 38,000  Level Jacksonville Center
08:47 33.0842 -79.8631 218° Southwest 360 414 38,000  Level Jacksonville Center
08:48 33.0025 -79.9328 216° Southwest 365 420 38,000  Level Jacksonville Center
08:49 32.9228 -80.0094 219° Southwest 365 420 38,000  Level Jacksonville Center
08:50 32.8386 -80.0767 214° Southwest 365 420 38,000  Level Jacksonville Center
08:51 32.7442 -80.1461 212° Southwest 370 426 38,000  Level Jacksonville Center
08:52 32.6581 -80.2106 212° Southwest 370 426 38,000  Level Jacksonville Center
08:53 32.5717 -80.2747 212° Southwest 370 426 38,000  Level Jacksonville Center
08:54 32.4853 -80.3386 212° Southwest 370 426 38,000  Level Jacksonville Center
08:55 32.3967 -80.4028 211° Southwest 370 426 38,000  Level Jacksonville Center
08:56 32.3125 -80.4689 214° Southwest 370 426 38,000  Level Jacksonville Center
08:57 32.2258 -80.5300 211° Southwest 370 426 38,000  Level Jacksonville Center
08:58 32.1414 -80.5936 213° Southwest 377 434 38,000  Level Jacksonville Center
08:59 32.0528 -80.6572 211° Southwest 371 427 38,000  Level Jacksonville Center
09:00 31.9725 -80.7131 211° Southwest 383 441 38,000  Level Jacksonville Center
09:01 31.8756 -80.7836 212° Southwest 378 435 38,000  Level Jacksonville Center
09:02 31.7867 -80.8469 211° Southwest 383 441 38,000  Level Jacksonville Center
09:03 31.7083 -80.9047 212° Southwest 383 441 38,000  Level Jacksonville Center
09:04 31.6092 -80.9703 209° Southwest 383 441 38,000  Level Jacksonville Center
09:05 31.5156 -80.9917 191° South 374 430 38,000  Level Jacksonville Center
09:06 31.4011 -81.0136 189° South 387 445 38,000  Level Jacksonville Center
09:07 31.2928 -81.0328 189° South 395 455 38,000  Level Jacksonville Center
09:08 31.1844 -81.0567 191° South 390 449 38,000  Level Jacksonville Center
09:09 31.0803 -81.0733 188° South 386 444 38,000  Level Jacksonville Center
09:10 30.9742 -81.0922 189° South 386 444 38,000  Level Jacksonville Center
09:11 30.8700 -81.1136 190° South 386 444 38,000 -780 Level Jacksonville Center
09:12 30.7597 -81.1328 188° South 391 450 36,500 -1,920 Descending Jacksonville Center
09:13 30.6556 -81.1492 188° South 391 450 34,200 -1,680 Descending Jacksonville Center
09:14 30.5489 -81.1511 181° South 391 450 33,200 -2,280 Descending Jacksonville Center
09:15 30.4403 -81.1458 178° South 386 444 29,700 -2,400 Descending Jacksonville Center
09:16 30.3172 -81.1456 180° South 408 470 28,500 -1,140 Descending Jacksonville Center
09:17 30.1939 -81.1406 178° South 431 496 27,500 -1,020 Descending Jacksonville Center
09:18 30.0728 -81.1381 179° South 442 509 26,500 -1,020 Descending Jacksonville Center
09:19 29.9494 -81.1331 178° South 442 509 25,500 -1,020 Descending Jacksonville Center
09:20 29.8286 -81.1328 180° South 442 509 24,500 -780 Descending Jacksonville Center
09:21 29.7239 -81.1275 177° South 442 509 24,000 -600 Descending Jacksonville Center
09:22 29.6050 -81.1250 179° South 431 496 23,400 -1,680 Descending Jacksonville Center
09:23 29.4881 -81.1222 179° South 425 489 20,700 -2,820 Descending Jacksonville Center
09:24 29.3647 -81.1150 177° South 412 474 17,800 -2,580 Descending Jacksonville Center
09:25 29.2542 -81.1122 179° South 400 460 15,600 -2,220 Descending Jacksonville Center
09:26 29.1517 -81.1044 176° South 375 432 13,400 -1,800 Descending Jacksonville Center
09:27 29.0556 -81.0944 175° South 352 405 12,100 -720 Descending Jacksonville Center
09:28 28.9594 -81.0867 176° South 345 397 12,000 -900 Descending Jacksonville Center
09:29 28.8781 -81.0931 184° South 345 397 10,300 -1,620 Descending Jacksonville Center
09:30 28.8167 -81.0833 172° South 272 313 9,400 -1,560 Descending Orlando TRACON
09:31 28.7500 -81.1000 192° South 269 310 7,800 -1,680 Descending Orlando TRACON
09:32 28.7167 -81.1667 240° Southwest 238 274 6,100 -2,100 Descending Orlando TRACON
09:33 28.6833 -81.2167 233° Southwest 267 307 3,800 -1,500 Descending Orlando TRACON
09:34 28.6333 -81.2833 229° Southwest 230 265 3,100 -660 Descending Orlando TRACON
09:35 28.5833 -81.3000 196° South 187 215 2,500 -660 Descending Orlando TRACON
09:36 28.5167 -81.3000 180° South 187 215 1,800 -780 Descending Orlando TRACON
09:37 28.4833 -81.3000 180° South 165 190 1,000 -840 Descending Orlando TRACON
09:39 28.4294 -81.3090 186° South  Level Estimated
09:46 28.4294 -81.3090 186° South  Level Estimated
09:47 28.4294 -81.3090 186° South  Level Estimated
09:48 28.4294 -81.3090 186° South  Level Estimated
09:49 28.4294 -81.3090 186° South  Level Estimated